ECMWFNIL_500_spd_000.txt.gz
Wind_Speed
28 29 30 31 32 32 33 33 33 33 33 34 34 34 35 35 35 35 36 36 36 36 37 37 37 38 38 38 39 41 41 42 43 43 43 43 43 43 43 42 42 41
29 30 32 33 33 33 33 34 35 35 35 35 35 36 36 36 36 36 36 36 37 37 37 38 38 39 39 39 40 41 42 43 43 44 44 44 44 44 44 44 43 43
29 31 33 34 34 34 34 35 35 36 36 36 36 36 36 36 36 37 37 37 37 38 38 38 39 40 40 41 41 42 43 43 45 46 46 45 45 45 45 45 45 44
30 32 35 36 36 36 35 35 36 36 37 37 37 37 37 37 37 37 37 37 38 38 39 39 40 41 41 42 42 43 43 45 46 47 47 46 46 46 45 45 46 46
32 34 36 37 38 37 36 36 36 36 36 37 38 38 38 38 38 38 38 38 39 39 39 40 41 42 42 42 43 44 45 45 46 47 47 47 46 46 47 47 46 47
34 36 37 39 39 38 36 36 36 36 36 37 38 38 38 38 38 39 39 39 39 40 40 41 42 44 44 44 45 45 45 45 46 48 48 47 46 46 46 46 46 48
34 35 37 39 39 38 36 36 36 36 36 37 37 38 38 39 39 39 40 40 41 41 42 43 44 45 45 45 46 46 46 46 47 49 49 48 48 46 45 46 48 50
33 35 38 40 39 38 36 36 36 36 37 37 37 38 39 39 39 40 41 41 42 43 44 45 46 46 46 47 47 47 47 48 49 50 49 50 50 47 46 47 49 48
35 37 40 40 38 37 36 36 36 36 36 37 38 39 39 39 40 41 42 43 44 45 45 46 46 46 47 48 47 48 49 49 50 50 49 51 50 48 48 48 46 45
37 39 40 40 38 37 36 36 36 36 37 37 38 40 41 41 42 43 44 45 45 46 46 47 46 45 46 47 48 49 50 50 51 50 50 50 49 49 49 47 45 43
38 41 41 39 37 36 36 36 37 37 38 40 41 42 43 43 44 45 45 45 45 46 47 47 47 45 44 45 46 48 50 51 51 50 49 47 46 48 48 45 43 41
39 43 41 38 35 35 37 37 38 39 40 41 43 44 44 45 46 46 46 46 45 45 46 46 46 46 46 45 45 48 51 51 50 49 47 43 43 47 46 43 42 41
41 43 40 37 36 36 38 38 39 40 41 43 45 46 47 47 47 47 47 47 46 45 45 45 46 47 47 46 46 48 49 48 49 49 47 44 45 46 45 43 42 40
42 42 38 36 37 38 39 40 40 41 42 45 46 47 48 48 48 48 48 47 47 46 46 45 46 47 47 47 47 47 46 45 46 46 45 44 45 45 42 41 40 39
43 42 37 37 39 40 41 41 41 42 44 46 47 48 49 49 49 49 48 48 47 47 46 46 46 47 48 49 48 45 45 46 44 40 40 42 42 40 39 38 37 36
45 42 38 39 41 41 42 42 42 44 46 48 49 50 50 50 50 49 48 47 47 46 46 47 47 47 48 49 48 45 46 47 44 40 41 42 40 38 36 34 34 34
44 41 40 42 42 43 44 44 44 46 48 50 51 50 50 51 51 48 46 45 45 46 46 47 48 49 49 48 47 45 44 45 44 43 42 42 40 37 34 32 32 33
43 42 43 44 44 45 45 45 47 49 50 51 51 51 51 52 51 48 46 44 44 46 47 48 50 49 48 47 46 44 43 44 44 42 41 41 39 37 34 32 32 31
43 44 45 45 45 45 46 47 49 51 52 52 52 53 53 53 52 50 48 46 46 48 49 49 50 49 48 47 43 42 43 43 41 39 38 38 36 34 33 32 31 31
44 45 47 47 47 47 47 49 51 52 53 54 54 54 53 52 51 50 50 50 49 49 49 49 50 48 46 44 41 42 43 42 40 38 35 33 32 32 32 32 32 32
45 46 47 47 48 48 49 51 52 53 54 54 53 53 52 50 50 50 50 50 49 49 49 50 49 46 43 41 42 44 44 42 40 38 34 31 31 31 31 31 31 32
46 47 47 48 49 49 50 52 54 54 54 53 52 52 49 47 48 50 49 49 49 49 49 48 46 43 42 42 44 46 46 44 41 37 33 31 30 30 31 32 32 31
47 48 48 48 49 51 52 54 54 55 54 52 51 49 47 47 48 49 47 47 48 49 48 46 42 41 42 43 44 45 45 43 41 36 32 30 29 30 31 32 32 31
48 48 49 49 51 52 53 54 55 55 54 53 52 48 47 47 47 46 45 44 45 48 49 47 44 41 40 40 41 43 41 40 39 34 31 30 29 29 30 31 30 31
47 48 49 50 50 51 52 53 54 55 54 54 53 50 48 47 46 45 45 43 42 44 47 48 45 41 38 37 38 40 40 38 35 31 29 29 27 27 29 30 30 30
47 50 50 48 48 50 52 53 53 53 54 54 54 52 48 47 47 47 45 43 41 42 44 46 42 39 40 38 35 36 38 36 32 29 27 27 26 27 29 30 30 29

ECMWFNIL_500_spd_003.txt.gz
Wind_Speed
25 25 25 25 26 26 27 29 30 31 32 33 32 32 32 32 31 31 32 32 33 33 34 35 35 35 36 37 37 38 39 40 41 41 42 42 43 43 42 41 42 43
24 25 25 26 26 27 29 30 31 32 32 32 32 32 31 31 31 31 32 32 33 34 35 35 36 36 36 37 38 38 39 40 42 42 43 43 43 43 43 43 43 44
24 24 25 26 27 28 29 29 30 31 31 30 30 31 31 31 31 31 32 33 33 34 35 35 35 36 36 37 38 39 40 41 42 43 43 44 44 43 44 44 45 46
25 24 24 26 27 28 28 28 30 30 30 30 30 29 29 29 30 31 32 33 34 34 35 35 35 36 36 37 38 39 41 42 43 44 44 45 44 44 45 45 47 48
25 24 24 25 26 26 27 29 31 31 30 30 30 29 28 28 29 31 33 34 34 35 35 36 37 37 37 38 39 39 40 42 43 44 44 45 45 45 45 46 47 48
25 25 25 25 25 25 28 30 32 31 31 32 31 29 28 28 30 31 32 34 35 36 37 38 39 39 39 39 39 40 41 42 43 44 44 44 45 45 45 45 46 47
25 26 26 26 25 26 29 32 32 32 33 33 32 30 30 30 31 32 33 35 37 38 39 39 40 40 41 40 41 41 42 43 44 44 44 44 44 44 43 44 45 48
26 26 26 26 27 28 30 32 33 32 32 33 32 30 30 31 31 33 35 36 38 39 40 41 42 42 42 42 42 43 44 44 44 45 44 43 43 43 43 44 46 48
27 27 27 27 28 29 30 32 32 32 32 32 32 31 30 30 31 33 35 37 38 40 42 43 44 45 45 44 44 44 44 45 45 45 44 43 44 44 44 45 46 47
28 28 28 28 29 30 31 32 32 33 33 33 33 32 32 31 32 35 37 38 40 42 43 45 46 47 47 47 46 46 45 45 46 47 47 45 45 45 45 46 47 47
29 28 29 30 31 32 32 32 34 34 34 35 35 35 34 34 34 36 38 39 41 43 44 46 47 48 49 49 49 47 45 45 47 49 48 47 46 47 47 47 47 46
29 29 31 32 33 34 33 34 36 36 37 37 37 36 35 35 36 37 39 41 43 44 46 47 48 49 49 50 50 48 46 45 46 47 48 48 48 48 48 47 47 46
29 29 31 32 34 35 35 36 38 39 39 39 39 38 37 37 38 39 41 43 44 45 47 48 49 50 50 50 50 50 49 48 46 46 46 47 48 48 47 47 47 46
28 29 30 32 34 35 36 38 40 40 40 40 39 39 39 39 39 41 43 44 46 47 48 49 50 51 51 52 52 51 50 48 47 47 47 46 45 45 45 46 46 46
28 30 32 34 35 37 39 40 40 40 40 40 40 40 40 40 41 43 44 46 47 49 50 50 51 51 52 53 53 52 51 49 49 49 48 45 43 42 43 44 45 45
29 31 34 36 38 40 41 41 41 40 40 40 40 40 41 41 43 44 46 48 50 51 51 51 51 52 53 53 53 52 51 49 49 48 45 43 42 43 44 44 44 44
30 33 36 37 39 41 42 41 41 40 41 41 41 41 42 43 45 46 48 50 51 51 52 52 52 52 52 51 51 51 50 49 48 46 44 42 43 44 46 45 44 43
31 34 36 38 40 42 42 41 41 41 42 43 42 42 44 45 46 47 49 51 51 51 51 52 52 51 51 50 50 50 49 47 46 44 43 42 42 44 45 45 43 40
33 35 37 39 42 42 41 41 42 43 44 44 44 45 45 46 47 48 50 51 50 50 51 52 51 51 50 49 49 48 48 46 45 43 40 39 41 44 45 42 39 36
34 36 39 42 42 41 41 41 43 44 44 45 46 47 47 48 49 50 50 50 50 51 51 51 51 51 50 48 46 46 45 44 43 40 36 37 41 44 43 38 34 32
36 38 41 42 41 40 41 43 43 44 45 46 47 47 48 50 51 51 51 51 51 50 50 50 49 50 49 47 44 42 40 40 40 36 34 37 41 42 39 33 29 29
37 40 42 41 39 40 42 43 44 45 46 47 47 47 48 51 53 53 53 52 50 50 50 49 48 48 49 47 43 39 37 38 39 36 33 35 39 38 34 31 28 28
38 41 41 39 39 41 41 42 45 46 46 47 47 47 49 51 53 54 53 51 50 50 50 49 47 46 47 46 43 40 38 39 39 36 33 34 37 36 33 31 30 29
39 42 41 40 40 40 39 41 44 45 45 45 46 48 50 52 53 53 52 51 50 50 50 49 47 47 45 44 42 40 39 39 39 36 33 34 38 38 35 32 31 31
39 41 41 41 40 38 39 42 43 43 43 44 46 50 52 52 53 53 53 52 50 50 50 48 47 46 44 43 42 40 39 39 39 37 36 38 40 40 37 33 31 31
38 40 41 40 37 37 41 43 41 41 43 45 49 51 52 52 53 54 53 52 50 50 49 48 47 46 44 43 42 40 39 39 40 39 39 40 40 38 37 33 31 31

ECMWFNIL_500_spd_006.txt.gz
Wind_Speed
21 20 21 23 25 25 26 26 27 28 28 28 28 28 29 28 26 25 25 25 25 26 28 29 31 32 32 33 33 34 35 36 36 37 38 38 39 39 39 39 39 40
21 21 21 22 23 24 25 27 27 28 27 26 26 27 28 26 25 25 26 26 27 27 28 30 31 32 33 33 34 35 35 36 37 37 38 39 39 39 39 39 39 39
22 21 21 22 23 24 25 26 27 26 25 24 25 26 26 24 24 25 26 27 28 28 30 31 32 33 34 34 34 35 35 36 36 37 38 39 40 40 40 39 39 40
22 21 21 23 23 24 24 25 26 24 23 23 24 25 25 24 24 24 26 27 28 29 30 31 33 34 35 35 35 35 35 35 36 37 38 39 40 41 40 40 40 41
23 21 21 22 23 24 24 24 24 23 22 22 23 24 25 24 24 25 27 28 29 29 30 32 34 35 36 36 36 36 36 36 37 37 37 39 40 41 41 40 40 41
24 22 21 22 23 24 24 24 24 22 22 22 22 24 25 26 26 27 29 30 30 30 31 32 34 36 37 38 38 38 37 37 37 38 38 39 41 42 42 42 42 42
26 24 23 23 24 24 24 24 24 23 22 22 22 24 26 28 29 29 31 31 31 31 32 34 36 37 38 39 39 39 39 39 39 40 41 41 43 44 45 45 44 44
28 26 25 24 24 24 24 24 24 24 23 22 23 24 27 29 30 31 32 33 33 32 33 35 36 37 38 39 40 41 41 42 42 42 43 44 45 46 47 47 46 46
30 27 25 25 25 26 26 25 24 23 23 23 24 26 28 30 31 32 33 33 33 33 34 35 37 38 40 41 42 42 43 44 44 44 45 46 47 47 47 48 48 48
30 28 27 27 27 28 28 25 24 23 23 24 25 27 30 31 32 33 33 34 34 34 35 37 38 39 41 42 43 43 44 44 45 46 47 47 47 48 48 48 49 49
31 29 28 29 29 29 29 26 25 25 25 26 27 29 31 33 33 33 33 34 35 36 37 39 39 40 41 42 43 43 44 44 45 46 47 48 48 48 49 50 51 50
33 30 29 29 30 30 29 27 26 27 27 28 29 31 32 33 33 33 34 36 37 38 40 41 41 41 42 43 44 44 44 45 46 47 48 49 49 49 50 51 51 51
33 30 30 30 30 31 31 29 27 28 29 30 31 32 33 34 34 35 37 38 39 40 41 42 42 42 43 44 45 45 46 46 47 48 49 50 50 50 51 51 52 51
32 31 30 29 29 31 32 30 29 30 31 32 33 33 34 35 36 38 40 41 41 41 42 42 42 43 45 45 46 47 48 47 47 48 49 50 51 51 51 51 50 48
33 32 30 29 30 32 33 31 29 31 32 33 34 34 35 36 39 41 42 42 41 41 41 42 43 44 46 46 48 49 49 47 47 48 49 50 51 51 50 49 47 43
33 31 30 30 32 34 34 32 31 32 33 35 35 35 36 38 41 42 42 42 41 41 41 42 44 45 47 48 49 49 49 48 48 48 49 49 49 49 48 46 44 40
31 31 31 33 34 35 34 33 32 33 34 36 36 36 38 40 41 42 42 41 41 41 42 44 46 47 47 48 49 49 49 48 48 48 48 48 48 48 46 44 43 40
30 30 31 33 34 34 33 33 33 34 36 37 37 37 39 41 42 42 42 40 41 42 44 46 48 48 48 49 49 49 49 48 48 47 47 48 48 48 46 45 44 41
29 29 32 34 34 33 33 33 34 35 37 38 38 39 40 42 42 42 41 40 41 43 45 48 49 49 49 49 49 49 48 48 48 47 47 48 48 47 46 45 44 41
30 31 34 35 34 34 34 35 35 36 38 39 39 40 40 40 42 42 41 41 42 44 47 49 50 49 48 48 49 49 48 47 47 47 47 47 47 47 45 44 43 42
30 33 36 36 36 36 36 36 36 36 38 40 41 41 39 39 42 43 42 43 44 46 49 50 49 48 48 48 49 48 47 46 46 46 47 47 47 47 45 43 42 41
30 33 36 36 37 38 38 37 36 36 38 40 41 40 37 39 43 44 44 45 46 48 49 48 47 48 48 48 48 48 47 46 46 46 46 47 47 46 44 43 42 40
29 32 34 35 37 38 38 37 36 35 37 40 40 39 38 41 45 46 46 48 49 50 49 48 48 49 50 49 49 48 46 46 45 45 45 45 45 45 44 43 42 40
29 31 34 35 37 37 36 35 35 36 38 40 39 39 40 43 46 46 47 49 49 49 50 49 50 51 52 51 49 48 46 46 45 44 44 44 43 43 43 43 42 41
32 32 33 35 37 37 35 34 35 38 40 40 40 41 42 45 46 46 48 50 49 49 50 50 51 52 52 51 49 48 47 46 45 44 43 43 42 42 42 42 42 41
33 31 32 35 39 38 35 35 37 39 40 40 41 43 45 46 47 47 49 50 50 50 51 51 51 52 52 51 49 48 47 46 45 44 43 42 41 41 41 42 41 41

ECMWFNIL_500_spd_009.txt.gz
Wind_Speed
20 22 23 23 22 22 23 24 25 26 27 28 28 28 28 28 27 27 26 26 25 25 23 22 23 25 26 27 28 30 31 33 34 35 36 36 36 36 36 36 36 36
21 23 24 24 23 22 22 23 24 25 27 28 28 28 28 27 26 26 26 25 25 25 24 24 25 27 28 29 30 31 33 34 35 36 37 37 37 37 38 38 38 38
24 26 27 26 24 23 22 22 23 25 26 28 28 28 27 27 26 26 26 25 25 26 26 26 27 28 30 30 31 32 34 35 36 36 37 38 38 38 39 39 39 40
26 27 29 28 26 25 23 23 23 25 27 27 28 28 28 27 27 27 26 26 26 27 27 28 29 30 31 31 32 33 34 35 36 37 38 39 39 39 39 39 40 40
28 29 30 29 27 25 25 25 26 27 28 28 27 28 28 28 28 27 26 26 27 28 28 29 30 31 31 32 33 34 35 35 37 38 39 40 40 40 40 40 40 41
32 31 31 30 28 26 24 25 27 28 28 28 27 27 27 28 28 27 27 27 28 28 29 30 31 31 32 33 34 34 35 36 38 40 41 41 41 40 40 41 42 42
35 34 32 31 30 27 24 24 25 27 27 27 26 26 26 28 28 27 27 28 29 29 30 31 31 32 33 34 35 36 37 39 40 41 41 41 40 40 41 42 44 44
36 37 35 32 31 28 24 24 24 25 26 26 25 25 26 27 27 26 27 28 29 30 31 31 32 33 34 35 36 37 39 41 42 42 41 41 41 42 43 45 46 46
36 38 36 32 30 28 24 23 24 25 26 26 26 25 25 26 26 26 26 28 30 31 31 32 33 35 36 36 37 38 40 42 43 43 43 43 43 43 45 46 46 46
37 40 38 33 31 29 25 23 25 26 27 27 27 26 26 26 25 25 26 29 31 31 32 34 35 36 37 37 38 39 41 42 43 43 44 44 45 45 46 46 46 47
40 43 41 34 30 29 27 27 28 27 28 28 28 27 26 26 25 25 27 29 30 31 34 36 37 37 37 38 38 39 40 42 43 44 45 46 46 47 47 47 48 49
44 43 37 33 31 31 32 31 28 26 28 29 29 28 27 26 25 26 28 30 31 33 35 37 38 38 38 38 38 39 41 43 44 45 46 47 47 48 48 49 50 49
48 41 32 32 34 35 35 32 26 25 27 30 30 30 29 27 27 28 30 31 32 34 36 38 38 37 37 37 38 40 42 45 46 46 46 47 48 48 49 50 49 47
48 36 31 35 37 36 35 32 27 26 28 29 30 31 31 29 29 30 32 33 34 35 36 37 37 36 37 37 39 41 44 46 46 46 46 47 49 49 50 49 47 45
45 34 34 39 37 33 32 30 28 28 28 29 30 31 31 30 31 32 34 35 36 36 36 36 36 36 37 38 40 43 45 47 47 46 47 48 50 50 49 48 46 45
43 41 40 39 34 31 29 28 28 28 27 28 29 30 31 31 31 33 35 36 38 37 36 36 36 37 38 39 42 45 47 48 48 48 49 49 50 50 48 47 45 45
38 43 42 39 36 32 28 27 28 28 28 29 29 31 31 31 32 33 35 37 39 39 38 37 38 40 40 41 44 46 48 49 49 49 49 49 49 48 47 46 44 44
39 40 40 39 36 31 28 29 30 31 31 30 31 32 32 32 32 33 34 37 39 39 38 39 41 43 42 43 45 47 48 48 48 48 48 48 48 47 47 45 44 44
38 37 38 37 34 32 32 31 31 33 32 31 33 33 32 33 33 32 34 37 38 38 38 39 42 44 43 44 46 48 49 48 48 47 47 47 47 47 47 46 45 45
36 34 37 38 39 40 37 31 29 31 32 33 35 35 33 33 33 33 35 37 38 37 38 40 43 44 44 45 48 50 50 48 48 47 47 47 47 47 47 47 47 46
32 32 35 37 40 41 38 32 31 33 33 34 36 35 34 34 33 34 36 38 38 38 39 41 43 44 45 46 49 50 49 48 48 47 48 48 47 47 47 47 47 46
30 31 35 37 39 39 36 32 33 35 34 33 34 34 34 34 34 35 37 39 38 38 40 42 44 45 45 46 48 48 47 47 47 48 48 48 48 47 47 47 46 44
30 33 37 38 38 39 37 35 37 37 34 33 34 33 34 34 35 36 38 39 38 38 41 43 45 46 46 46 47 47 47 47 47 48 48 48 47 47 46 46 45 43
35 38 39 38 36 37 38 41 42 38 33 34 34 33 33 35 36 38 39 39 38 40 42 44 46 46 45 46 47 48 47 48 48 48 48 47 47 46 45 44 43 43
38 39 39 38 38 38 40 44 45 38 33 35 34 33 34 36 36 37 38 39 40 41 44 46 47 46 45 47 48 48 48 48 48 48 48 47 46 45 44 43 43 43
41 43 43 41 39 37 39 42 42 37 35 35 34 33 34 35 35 36 38 40 41 41 44 47 46 46 47 47 48 48 48 48 48 48 48 47 46 44 42 42 42 42

ECMWFNIL_500_spd_012.txt.gz
Wind_Speed
19 19 20 21 22 23 23 24 24 25 26 26 26 26 26 25 25 25 24 23 23 24 24 25 25 25 25 25 25 25 26 27 28 29 30 31 32 33 33 33 34 34
20 20 21 22 23 23 23 23 24 24 25 26 26 26 26 26 26 26 25 23 23 24 25 25 25 26 26 25 25 25 26 27 28 29 31 32 33 33 34 34 34 34
21 21 21 22 23 24 24 24 24 24 25 26 27 26 25 26 26 26 25 23 22 24 25 25 26 26 26 26 26 26 26 27 29 30 32 33 33 34 35 35 34 34
23 22 22 23 23 24 25 25 24 24 25 26 26 26 25 25 25 25 24 23 23 24 25 26 26 26 26 26 26 26 27 28 30 32 33 33 34 34 35 35 34 34
24 24 26 26 26 26 27 27 27 27 26 26 26 25 25 25 25 24 24 23 23 24 25 26 26 26 26 26 25 26 28 30 31 32 32 33 34 35 35 35 35 35
25 25 27 29 29 30 31 31 30 29 27 26 25 24 25 25 25 24 23 22 22 23 24 25 25 26 25 25 25 26 29 31 32 32 32 33 34 35 36 36 36 37
26 27 29 30 31 33 34 34 31 30 28 26 24 25 25 24 24 24 24 23 22 23 24 25 25 25 25 24 25 27 29 31 31 31 31 33 35 36 37 38 38 38
28 29 31 33 34 35 34 33 32 33 32 29 27 26 25 24 24 24 25 24 24 24 25 25 25 25 25 25 26 28 30 31 31 31 32 33 35 37 38 38 37 36
31 32 33 35 37 38 36 35 35 36 36 34 31 28 26 25 23 23 24 25 26 26 26 26 26 25 25 26 27 29 30 31 31 31 33 35 37 39 39 37 36 36
34 36 37 37 39 41 39 38 37 38 40 41 35 30 26 25 22 22 24 26 28 28 28 27 26 26 26 27 28 29 30 31 32 33 34 36 39 40 39 37 36 39
36 38 39 39 41 41 40 39 40 42 46 44 35 29 26 23 21 22 25 27 29 30 30 29 27 27 27 29 30 30 31 32 32 33 35 37 40 41 39 38 39 42
37 40 41 41 42 41 41 42 44 46 45 37 31 29 27 22 20 22 25 27 29 30 31 31 30 29 29 30 31 32 32 32 33 34 36 38 40 41 40 40 42 43
39 42 42 42 42 41 41 43 46 47 41 34 33 34 30 24 21 21 24 27 28 29 31 32 32 31 31 32 33 34 34 34 36 38 39 40 41 42 43 43 44 44
40 42 40 41 41 39 41 44 45 47 44 40 41 39 31 25 21 22 24 27 28 29 31 32 33 32 32 33 34 35 35 36 38 40 40 41 42 43 45 45 44 44
39 40 38 40 40 40 44 44 43 44 44 43 42 37 32 28 27 27 28 29 30 30 31 33 34 33 32 33 34 34 35 37 39 40 41 42 43 45 45 46 45 45
38 38 38 39 41 43 44 43 40 40 41 40 39 36 33 33 32 30 30 31 32 32 32 34 34 33 32 32 33 33 34 37 39 40 42 43 44 45 46 46 46 46
37 38 39 41 43 44 44 41 35 31 33 36 36 35 33 32 30 29 31 33 34 33 34 35 34 33 32 32 33 34 35 37 39 41 43 43 44 45 46 46 46 46
38 40 40 43 44 46 49 47 35 26 28 33 34 33 33 32 30 30 33 33 34 35 35 35 34 33 33 34 35 35 36 37 40 42 43 42 43 44 45 45 45 45
40 41 41 43 44 44 46 42 32 26 30 32 32 33 34 33 32 32 32 32 33 35 35 35 34 34 35 36 37 37 37 39 42 43 43 43 44 45 46 45 46 46
42 44 43 45 45 42 40 34 28 27 30 30 31 32 32 32 32 31 32 32 34 36 37 36 35 35 37 38 38 39 40 41 44 45 44 44 45 46 46 46 46 46
45 46 47 48 45 41 40 35 31 31 31 29 30 30 32 34 34 33 33 33 34 37 37 37 37 37 38 38 39 40 41 43 45 44 43 44 45 46 46 46 46 46
45 47 49 50 45 42 42 38 35 36 34 30 29 31 34 36 37 36 35 32 33 36 37 37 37 37 37 38 38 39 41 43 44 43 43 44 45 46 46 46 46 46
45 48 50 51 47 43 41 36 35 38 36 30 30 32 34 36 38 38 36 33 33 35 36 37 37 37 37 37 37 39 41 42 42 42 43 45 45 46 46 46 46 46
44 46 50 52 47 41 38 35 34 36 34 31 32 34 34 35 37 38 37 34 33 35 37 38 37 35 35 35 36 39 41 41 41 42 44 44 45 46 47 47 46 45
43 44 49 52 46 38 38 38 35 32 31 32 34 35 33 34 36 37 37 36 35 37 40 40 37 33 32 35 37 39 40 42 43 43 44 45 46 47 47 46 46 45
42 43 47 51 48 43 42 42 37 33 34 35 35 34 34 35 36 38 39 40 40 41 43 43 39 34 34 38 40 40 40 42 43 43 44 46 46 46 46 45 45 47

ECMWFNIL_500_spd_015.txt.gz
Wind_Speed
16 15 16 17 17 18 18 18 18 19 20 21 22 23 22 22 21 22 23 23 22 22 21 21 20 20 20 20 21 22 23 23 23 23 24 24 24 24 25 26 27 27
16 16 17 18 18 18 19 19 20 20 20 21 22 24 24 23 22 22 23 24 23 23 22 22 21 21 22 21 22 23 23 23 24 24 24 25 25 26 26 26 27 28
16 17 18 19 19 19 20 22 23 23 23 23 24 25 26 25 24 23 23 23 23 23 23 22 22 22 22 22 22 23 24 24 24 25 26 26 27 26 26 26 27 28
17 19 20 21 21 21 22 25 27 27 27 28 28 28 28 27 27 26 24 24 24 24 23 23 22 22 22 22 23 24 25 25 25 25 27 27 27 26 25 25 27 29
19 21 22 23 23 23 24 27 29 29 29 30 31 31 31 30 30 29 26 26 26 25 23 22 22 22 23 23 24 25 26 26 26 27 27 27 26 25 25 26 28 30
20 22 23 23 22 23 25 28 31 31 31 31 31 32 33 33 34 33 31 30 30 27 24 22 21 22 23 24 25 27 28 28 28 28 28 27 26 25 25 27 29 32
21 23 24 23 22 23 26 29 31 33 34 33 32 32 33 35 37 37 36 35 33 30 27 24 22 23 25 26 27 28 29 30 30 29 28 27 27 27 27 28 30 33
24 24 24 25 25 25 27 29 31 34 35 35 35 35 35 38 39 39 39 38 35 32 30 26 23 24 27 28 29 30 30 31 31 30 29 28 28 28 28 28 31 34
25 24 25 27 27 28 29 29 31 34 35 36 37 37 38 41 41 39 41 40 34 31 29 26 25 26 28 29 30 31 31 32 32 31 30 29 29 29 29 30 32 35
25 25 25 27 28 29 30 30 30 33 36 37 38 39 39 42 41 40 41 36 29 28 28 26 26 27 28 29 30 33 34 34 35 33 30 30 30 31 32 33 35 37
26 26 25 25 26 27 28 28 29 32 35 35 38 40 39 40 41 41 39 31 25 25 28 27 28 28 28 29 30 33 35 36 37 35 32 31 32 32 33 34 35 37
27 27 26 24 25 26 28 29 31 34 36 36 38 39 39 42 44 42 37 31 28 29 29 28 29 29 28 29 31 32 33 36 37 35 33 32 32 32 32 33 34 36
29 28 28 27 27 27 30 32 33 36 38 38 38 38 38 41 41 35 31 31 32 32 30 29 29 28 29 31 32 32 33 35 36 36 34 33 32 32 32 33 35 37
27 28 29 30 31 31 31 32 35 38 41 41 41 40 38 35 30 26 28 31 31 29 28 28 27 27 29 32 31 32 34 35 36 36 35 34 33 33 33 34 36 37
26 27 30 33 35 35 34 34 38 42 43 45 46 46 40 30 23 23 27 29 28 27 28 27 26 27 30 31 31 33 35 36 36 36 35 35 35 35 35 36 37 38
26 28 31 34 38 39 36 35 38 41 43 47 52 54 47 34 23 21 23 24 25 28 30 28 27 28 30 30 31 33 35 35 36 36 36 36 36 36 36 37 38 39
28 30 32 35 39 41 40 39 39 38 41 45 50 52 45 36 24 21 21 23 24 28 30 29 28 29 30 31 33 34 35 35 35 36 37 37 37 36 36 37 38 38
31 33 34 36 41 43 43 45 43 39 40 41 43 44 36 28 23 24 22 23 25 29 31 31 30 31 33 34 34 34 34 34 36 37 38 37 36 35 34 35 37 38
31 33 36 38 42 44 45 47 46 43 42 41 38 38 32 27 28 31 26 25 27 30 33 33 33 34 36 37 36 35 34 35 36 38 38 37 34 33 33 34 35 37
30 32 36 39 42 45 45 46 46 46 44 41 38 35 31 28 31 32 27 27 29 32 34 34 35 37 39 38 37 36 36 36 36 38 39 36 32 31 33 34 34 36
32 34 37 40 42 44 45 46 46 46 44 41 38 35 31 29 31 30 27 28 31 33 34 34 36 38 40 39 38 38 38 37 37 39 38 34 32 33 33 34 36 37
35 36 38 40 41 42 43 44 47 46 43 39 37 35 34 33 32 30 28 30 32 34 34 35 37 39 40 40 40 40 39 37 36 37 37 36 37 37 35 35 37 39
38 39 39 40 41 41 42 43 46 46 41 37 35 35 34 32 31 30 31 32 34 33 34 36 39 41 42 42 41 40 39 37 36 36 36 36 37 36 36 38 39 39
41 42 42 41 41 41 42 43 45 45 40 36 34 32 30 30 31 33 33 33 33 32 33 37 40 43 44 43 39 38 39 38 35 32 32 33 34 37 40 42 41 41
44 45 44 43 43 43 42 43 45 44 41 37 35 33 33 34 35 35 33 32 31 32 35 39 41 44 47 44 39 38 40 38 32 29 30 33 36 39 42 42 42 43
46 45 44 44 44 44 43 44 45 45 42 38 37 37 38 36 34 34 32 30 30 33 37 40 44 48 48 42 36 36 36 33 30 30 32 34 37 40 41 42 43 44

ECMWFNIL_500_spd_021.txt.gz
Wind_Speed
15 14 14 14 15 14 13 13 13 13 13 13 13 14 15 16 17 18 19 20 21 22 22 23 23 25 26 26 27 28 28 29 28 27 25 25 25 25 24 23 23 23
15 15 15 15 15 14 14 13 14 14 14 14 14 15 16 17 18 19 19 21 22 24 25 25 25 26 27 28 29 30 31 31 32 31 28 26 26 26 25 24 23 24
17 16 16 15 15 14 14 14 14 14 14 15 16 17 18 18 20 21 22 22 23 24 26 27 28 28 28 29 30 31 32 32 32 32 31 28 27 28 28 27 25 25
18 17 16 15 15 15 15 14 14 15 15 16 18 19 20 21 22 24 25 24 25 26 27 28 29 30 31 32 32 32 32 31 32 31 31 30 29 29 30 30 28 27
19 18 17 16 15 15 15 14 15 16 18 18 19 20 21 22 23 25 27 27 28 29 30 30 30 32 34 35 35 35 34 32 31 31 31 30 30 31 32 32 31 31
19 18 17 16 15 15 15 15 16 17 19 20 20 20 21 22 24 26 28 29 30 31 32 33 34 35 35 35 36 38 37 33 31 31 30 31 31 31 31 32 33 33
19 18 18 17 16 16 17 17 17 18 20 20 20 21 21 21 24 26 27 28 30 31 32 33 36 36 36 37 38 40 39 34 31 30 30 30 30 29 30 32 33 34
19 18 17 17 17 17 16 16 18 19 20 20 21 23 23 23 25 26 25 27 28 29 31 33 36 38 39 39 40 41 39 34 30 30 30 29 29 29 31 32 33 34
19 18 17 17 17 16 16 17 19 20 20 22 23 23 22 23 24 25 25 27 28 30 31 33 36 39 40 41 40 38 35 32 28 28 30 29 29 29 31 32 33 34
18 18 18 17 17 17 18 19 20 21 21 23 24 22 21 21 23 25 26 27 29 31 31 33 36 38 39 40 38 33 29 26 24 26 30 31 30 30 31 32 33 34
18 18 18 18 18 18 18 18 19 20 20 21 24 24 22 22 25 25 27 29 30 31 32 34 37 40 42 40 34 26 22 22 23 26 30 32 33 32 32 33 34 34
18 18 19 19 19 18 17 17 19 19 18 19 24 25 23 23 25 26 27 29 30 31 33 35 36 39 38 30 23 20 20 23 26 28 31 33 34 34 33 34 34 34
19 19 20 20 20 19 18 18 20 21 20 20 22 24 24 23 25 27 28 29 30 31 34 36 35 31 25 19 18 21 23 24 27 30 31 32 33 34 34 34 34 35
20 20 20 19 20 20 19 18 21 24 24 23 23 26 28 27 27 28 30 30 29 30 33 35 33 28 24 24 26 27 26 26 27 30 30 30 31 32 34 34 34 36
21 21 20 20 21 20 19 19 22 25 26 26 25 27 30 30 30 30 32 32 31 30 31 33 32 29 29 30 30 29 29 29 30 31 31 31 31 32 33 34 34 36
21 21 21 22 21 19 19 21 23 26 28 28 29 30 31 32 33 33 35 35 34 32 31 30 30 31 32 33 32 30 30 30 32 33 33 33 33 33 34 34 34 37
21 21 21 20 20 19 20 22 24 26 27 28 30 33 35 36 36 36 38 39 38 36 33 30 30 32 34 35 34 31 29 31 33 35 36 36 36 35 35 35 36 37
21 21 19 19 20 20 22 24 26 28 29 30 31 34 36 38 40 39 40 41 40 37 34 31 30 31 32 33 32 31 31 33 35 36 37 38 38 37 36 37 38 39
21 21 20 21 22 23 25 27 29 31 32 33 35 37 38 40 41 41 41 42 41 38 35 33 31 31 30 30 32 33 35 36 36 36 36 37 38 37 37 38 39 39
23 23 23 24 24 26 28 30 32 33 34 36 38 40 41 42 43 43 42 42 40 38 35 33 32 31 29 30 34 35 37 38 36 34 34 36 37 37 37 37 38 39
26 25 26 26 26 28 29 31 34 36 38 40 42 43 45 45 45 45 43 41 38 36 35 33 33 32 30 31 34 36 37 37 35 33 33 35 36 37 37 37 37 37
27 28 28 28 29 30 31 32 35 38 41 43 45 47 48 47 47 45 42 40 37 35 35 34 35 35 32 31 34 36 36 35 34 33 34 35 36 37 38 39 40 40
29 31 31 31 32 33 34 35 37 39 42 45 47 49 50 49 48 45 43 41 39 37 36 36 37 38 35 32 33 35 35 35 34 34 35 36 36 36 38 40 41 43
33 34 34 34 35 37 38 40 41 42 44 46 49 51 51 49 48 46 45 44 42 40 39 37 37 38 36 32 32 34 35 35 35 35 35 35 35 37 38 39 41 45
37 37 37 38 38 39 41 42 42 43 45 47 50 51 50 49 48 47 46 45 44 42 40 36 34 36 36 32 32 34 36 37 37 35 34 33 34 37 38 40 43 46
40 40 41 42 42 42 43 43 42 43 45 48 49 49 49 50 48 47 46 46 44 41 38 35 33 35 36 33 32 35 39 40 37 33 32 34 36 37 38 41 43 44

ECMWFNIL_500_spd_024.txt.gz
Wind_Speed
19 19 18 16 16 17 17 17 16 14 14 15 16 17 17 17 17 17 18 19 20 21 21 21 22 23 23 23 24 25 26 27 28 29 29 29 30 29 27 27 25 24
21 20 19 17 18 18 18 17 17 15 14 16 17 17 17 17 17 18 19 20 22 23 23 23 24 24 24 24 24 26 27 28 29 30 31 31 31 30 28 27 26 24
22 21 20 19 19 19 19 18 17 16 16 17 17 17 17 18 19 19 20 21 22 23 24 24 24 24 24 25 26 27 28 29 30 32 34 33 33 32 30 28 27 25
22 22 22 21 20 19 19 18 18 17 17 17 16 17 18 19 19 20 20 21 22 23 24 24 24 25 26 27 28 29 30 31 32 34 35 35 33 32 31 29 28 26
22 22 23 22 20 19 19 18 18 17 17 16 16 17 17 18 19 20 20 21 22 23 23 24 25 26 28 29 31 32 32 33 34 35 37 36 31 29 29 30 29 27
23 23 23 22 20 19 19 18 17 17 17 16 17 17 17 17 18 19 20 21 23 23 23 25 27 28 29 32 33 35 36 37 37 37 36 33 26 23 26 29 29 28
23 23 23 22 20 19 19 18 17 16 16 16 16 17 17 18 18 17 18 20 22 23 24 26 28 29 31 33 34 36 38 40 39 35 31 26 21 21 25 28 30 29
22 22 21 20 19 19 18 17 16 16 16 15 15 16 17 17 17 17 17 19 22 23 24 26 28 30 31 32 34 34 36 39 35 26 22 20 20 22 26 28 30 30
19 20 19 18 18 18 18 17 16 15 15 15 15 15 15 15 16 17 18 19 21 22 23 25 27 29 30 31 32 32 32 33 26 18 19 22 23 25 27 29 31 32
17 17 17 17 16 17 17 16 15 14 15 15 14 13 14 15 15 16 17 19 20 21 23 25 27 29 30 31 32 31 29 27 23 21 25 27 25 26 28 30 33 35
16 16 15 16 15 15 16 15 14 14 15 15 15 14 13 15 16 17 19 20 22 23 24 26 28 29 30 31 32 32 29 28 28 29 31 29 26 26 28 31 34 36
16 16 15 15 14 14 15 15 15 15 15 15 16 16 15 15 16 18 20 22 24 25 26 27 29 30 31 31 32 33 32 32 33 34 34 31 27 27 28 30 33 36
16 16 15 14 14 14 14 15 16 16 14 14 17 19 19 18 18 20 21 23 26 28 29 30 31 33 33 33 33 33 33 34 35 36 36 34 30 28 28 30 32 36
18 17 15 14 13 14 15 15 16 17 15 14 16 19 22 22 22 22 24 27 29 32 34 35 36 37 37 36 36 35 34 35 37 37 37 36 32 29 30 32 33 36
18 17 14 13 13 14 15 15 17 18 17 16 16 18 21 23 24 24 26 29 32 34 37 39 40 41 41 40 40 38 36 36 37 38 37 36 32 30 31 34 35 37
18 16 13 13 13 15 15 15 16 17 18 18 17 18 21 23 25 26 29 31 34 36 39 41 42 43 43 43 42 41 38 37 38 38 37 35 33 32 34 36 37 38
16 14 13 13 15 15 15 16 17 18 20 21 21 21 22 25 27 29 31 33 35 38 41 43 43 43 43 43 43 42 40 38 38 39 38 35 33 34 36 37 39 39
15 14 14 15 16 16 17 18 19 20 21 23 25 25 26 28 30 31 32 34 36 39 41 43 44 43 43 42 42 42 41 41 40 39 38 36 36 37 38 38 39 39
15 16 16 16 17 18 19 21 22 22 24 25 27 29 30 32 34 34 35 37 39 41 43 44 44 43 42 42 42 42 42 43 43 41 39 38 38 38 38 38 38 37
17 18 18 18 19 20 21 22 23 24 26 28 29 31 33 36 38 39 40 41 43 44 45 45 45 44 43 43 43 43 43 44 44 43 40 39 39 39 38 37 36 37
18 19 19 19 20 21 22 24 25 26 27 29 32 34 36 38 40 42 43 45 46 46 46 46 46 46 45 44 43 43 43 44 44 42 40 40 40 40 38 36 36 38
18 19 19 19 21 22 24 26 27 28 29 32 34 36 38 40 42 43 44 46 47 47 48 48 46 46 46 44 43 43 43 42 41 41 40 40 40 39 38 37 37 39
21 22 22 23 24 25 27 29 30 31 32 34 36 39 41 43 44 45 46 46 46 48 50 49 47 46 46 43 42 43 42 40 39 39 39 39 39 39 40 40 39 41
26 26 27 27 27 28 31 32 33 34 35 37 39 41 43 45 46 46 45 44 46 49 50 50 48 46 45 43 42 41 39 38 38 38 38 39 40 41 43 43 42 42
30 31 32 31 30 31 33 35 36 37 37 39 41 43 46 49 45 41 41 43 46 49 50 49 48 46 44 43 42 40 37 37 37 37 37 39 43 46 46 45 43 43
33 34 35 35 34 34 36 37 39 40 41 43 45 45 48 49 44 39 41 45 47 48 47 46 46 45 44 43 42 40 39 38 38 38 39 42 46 48 45 43 43 47

ECMWFNIL_500_spd_027.txt.gz
Wind_Speed
17 17 18 17 16 16 16 15 14 14 13 12 12 12 13 14 15 15 15 15 16 17 18 18 19 19 18 18 18 20 21 23 25 27 28 29 31 32 31 30 30 29
18 19 20 19 18 17 17 16 14 14 14 13 13 14 14 14 15 15 15 16 16 17 17 18 19 19 18 18 20 22 23 25 27 29 30 32 32 31 30 28 27 26
20 21 21 21 19 18 18 17 15 14 14 14 13 14 14 14 15 15 16 16 17 18 19 19 19 19 19 20 21 22 23 25 27 29 32 33 28 24 23 23 23 22
23 22 22 22 20 19 18 17 15 14 14 14 14 14 15 15 15 15 16 17 18 19 19 18 18 19 20 21 22 23 24 25 26 28 31 29 21 17 20 21 22 23
24 24 23 22 21 19 18 16 15 13 13 13 14 14 15 16 16 16 16 17 18 18 18 17 18 19 20 21 22 24 24 26 27 27 28 25 17 15 19 22 23 24
23 23 23 22 20 18 16 15 14 13 12 13 13 14 15 16 17 17 17 17 17 17 17 17 17 18 20 21 23 24 25 26 26 26 25 22 16 16 21 24 23 24
20 21 21 20 18 16 14 14 14 13 12 12 13 14 15 16 16 16 15 15 15 15 15 16 17 18 20 22 23 24 25 26 26 26 25 22 20 22 26 26 24 24
16 17 17 16 15 13 13 13 13 12 12 12 13 14 14 14 14 13 13 13 13 14 15 16 18 19 21 23 25 26 27 27 27 27 27 26 26 27 29 28 26 25
13 13 13 12 12 12 12 13 12 12 12 12 13 14 13 12 12 12 13 13 15 16 17 18 19 20 22 24 27 28 30 30 29 29 28 28 29 30 30 30 28 27
10 11 10 9 9 10 12 12 12 12 13 13 13 13 12 12 13 14 15 16 16 17 18 19 20 22 24 26 29 30 32 33 32 31 30 30 30 30 31 31 32 30
9 9 8 8 8 10 11 11 12 12 14 14 13 12 12 13 15 16 16 17 17 18 19 20 22 25 27 29 31 33 34 35 34 33 32 32 32 32 31 31 32 32
9 9 8 8 9 10 10 11 12 14 15 14 13 12 12 13 15 16 17 18 19 19 19 21 24 27 29 31 33 35 36 36 35 35 34 33 33 33 33 32 32 33
10 10 10 10 10 10 11 11 13 14 15 15 14 13 13 14 15 17 18 19 20 20 21 23 25 28 30 32 35 36 37 37 37 36 35 34 35 34 34 34 33 34
12 11 11 11 10 10 11 12 14 15 15 16 16 16 15 15 16 17 18 20 20 21 22 23 25 28 31 33 36 37 38 38 38 37 35 35 36 36 35 35 35 35
15 14 13 12 11 10 11 13 15 16 16 16 17 17 17 17 18 19 20 21 21 21 23 25 28 31 33 34 36 38 39 40 39 38 36 36 36 37 37 37 37 37
17 15 14 13 11 11 13 14 15 16 16 16 16 17 18 19 20 20 21 22 22 23 26 28 31 33 34 35 37 38 39 40 40 37 36 36 37 37 38 39 38 38
18 16 14 13 12 13 14 15 16 16 16 16 16 17 19 20 21 22 23 24 25 26 29 30 32 33 35 36 37 39 39 40 41 38 36 38 38 38 39 39 38 38
18 16 15 14 14 15 15 15 16 16 16 16 16 17 19 21 22 23 25 27 28 29 30 31 33 35 36 37 38 39 39 40 41 40 39 39 39 38 38 38 38 38
19 16 16 16 16 16 16 16 16 16 17 17 17 18 19 21 23 25 27 29 31 32 33 34 36 39 41 40 39 40 40 40 40 40 40 39 38 38 38 38 38 38
19 17 16 17 16 16 17 17 17 18 18 18 18 19 20 22 24 26 28 30 33 35 37 38 39 42 43 42 40 40 41 40 40 41 40 39 39 38 38 39 40 39
18 17 17 16 17 17 17 18 18 18 18 18 19 21 23 25 26 28 29 32 34 37 40 41 42 42 41 40 40 41 41 41 40 40 40 40 39 39 39 40 41 41
17 17 16 16 17 18 18 17 18 18 19 20 22 23 25 27 29 30 32 34 37 39 41 43 43 42 40 40 41 41 40 40 40 40 40 39 39 39 40 42 43 44
17 17 16 16 17 17 17 18 19 21 23 24 25 26 27 29 31 32 35 37 39 41 43 45 45 43 41 41 40 39 39 39 40 40 40 39 39 40 41 44 45 46
18 17 16 17 18 18 19 21 22 24 26 28 29 29 29 30 32 34 37 39 41 43 46 46 44 41 40 40 39 39 39 39 40 40 39 39 40 40 42 44 45 46
20 19 18 19 21 21 22 24 25 26 28 31 33 32 30 32 34 36 38 39 41 43 43 42 39 38 39 40 40 39 40 39 40 40 39 39 40 41 42 44 45 46
22 22 21 22 23 24 25 26 27 29 30 32 34 34 33 34 36 38 38 39 41 42 41 39 39 40 41 41 41 40 40 40 40 39 39 39 40 41 43 44 45 45

ECMWFNIL_500_spd_030.txt.gz
Wind_Speed
14 13 13 13 13 13 13 13 13 12 12 11 11 10 9 9 9 9 9 10 11 12 13 14 14 15 16 16 16 16 15 15 16 18 19 21 23 21 17 17 19 21
17 16 15 15 16 16 16 15 14 13 13 13 12 11 10 9 9 9 10 10 11 12 13 14 15 15 16 16 16 15 15 16 18 19 20 20 21 20 16 15 17 20
19 18 17 18 19 19 18 16 15 14 14 14 13 12 10 9 9 9 10 10 11 12 13 14 14 15 15 16 15 15 17 18 19 20 21 21 21 20 17 16 17 20
22 20 20 21 22 21 20 17 16 15 15 15 14 12 11 10 9 9 9 11 12 13 14 15 14 14 14 15 15 16 18 20 21 21 22 22 21 21 19 18 20 23
24 23 23 23 24 23 21 18 17 16 16 15 15 12 11 10 9 8 9 10 12 13 14 14 14 13 14 14 16 17 18 20 21 22 23 23 22 21 21 22 22 24
25 24 25 25 25 24 22 19 18 17 16 15 15 12 10 9 9 8 9 10 11 12 12 12 13 14 14 15 16 17 18 20 22 23 23 23 22 22 22 23 24 24
26 26 26 26 25 23 21 19 17 16 17 16 14 12 10 9 8 8 9 10 11 11 12 13 14 15 15 15 16 17 19 21 21 22 23 23 22 22 21 21 23 23
25 25 23 23 21 19 18 17 16 17 17 15 14 12 10 9 8 8 9 10 10 12 13 14 14 14 15 16 18 19 20 21 22 22 23 24 24 23 22 21 22 22
22 20 18 18 17 16 16 16 17 17 17 15 15 13 11 9 8 9 10 10 11 13 14 15 15 15 16 18 20 21 22 23 24 24 25 26 26 26 24 23 23 23
17 16 16 15 15 16 16 17 18 18 17 16 15 13 11 10 9 10 11 11 12 14 15 16 16 16 17 19 21 23 25 26 27 27 27 27 28 28 27 26 25 25
15 15 15 16 16 17 17 18 18 18 17 16 15 13 12 11 10 11 12 12 13 14 16 17 17 17 18 21 24 26 28 29 30 29 29 29 29 29 28 27 27 27
15 15 16 17 17 18 18 19 19 18 18 17 15 14 13 12 12 12 13 14 15 16 17 17 17 18 20 23 26 29 30 32 33 32 32 31 31 31 29 28 28 28
16 16 17 18 18 19 19 19 19 19 18 18 16 15 14 13 12 13 14 16 16 17 18 18 18 19 21 24 27 30 32 33 34 35 34 33 32 32 31 30 29 30
18 19 20 19 20 20 20 19 19 19 19 19 17 15 14 13 13 14 16 17 18 18 19 19 19 19 22 24 27 30 32 34 35 36 36 35 34 33 33 32 32 33
23 22 22 22 21 21 20 19 19 20 20 19 17 16 15 14 14 15 17 18 18 18 18 18 19 20 22 25 27 30 33 34 36 37 37 36 34 34 34 33 33 34
26 26 25 25 23 22 21 21 21 22 22 20 18 17 15 15 15 16 17 18 18 18 18 18 20 22 24 25 28 31 33 35 37 37 37 36 35 35 35 34 34 35
28 28 27 26 25 24 23 23 24 24 23 21 19 17 16 16 16 16 18 18 18 17 18 20 22 23 25 27 29 32 34 36 36 36 36 36 36 36 35 34 34 35
28 28 27 26 26 25 25 25 26 25 23 21 19 18 17 17 16 16 17 17 17 17 19 20 21 23 25 28 30 33 35 37 36 35 35 35 35 35 34 34 34 35
29 30 28 26 25 26 27 28 27 26 23 21 19 19 18 17 15 15 16 15 16 16 17 18 20 22 25 28 31 34 37 37 34 32 33 33 33 33 33 34 35 36
29 30 29 27 27 28 30 29 28 26 23 21 21 20 18 16 15 15 15 15 16 17 18 18 20 23 26 28 31 34 36 34 30 29 31 32 32 33 34 35 37 38
29 29 29 28 29 30 31 30 28 26 24 23 21 19 17 16 16 15 15 17 18 20 20 20 21 24 27 30 33 35 36 33 30 30 33 34 35 36 36 38 39 39
30 30 30 30 31 32 32 31 29 27 25 23 21 19 18 17 16 16 17 19 21 21 22 22 24 26 30 32 35 38 38 36 34 34 35 36 37 38 39 41 41 41
31 31 31 31 32 33 32 31 29 27 25 24 21 19 18 17 17 18 19 20 21 22 23 24 26 29 32 33 36 39 40 39 38 38 38 39 40 41 42 42 43 42
33 33 32 32 33 34 32 31 29 27 25 23 21 19 18 18 18 19 20 21 21 23 25 26 28 30 33 34 36 39 41 41 41 40 40 41 41 42 43 43 43 42
35 35 34 33 33 33 32 30 28 27 25 24 22 20 19 19 20 21 22 22 22 24 27 28 30 33 35 36 38 41 43 43 43 41 41 42 43 43 43 43 42 41
38 37 36 33 32 31 29 28 28 27 26 24 23 21 20 21 22 23 24 24 24 26 29 30 32 36 38 38 40 42 44 45 44 41 40 42 43 43 43 42 41 40

ECMWFNIL_500_spd_033.txt.gz
Wind_Speed
13 13 14 15 15 15 15 14 13 12 12 13 13 13 11 10 9 9 8 6 5 4 5 6 8 9 11 11 11 11 12 12 14 15 16 17 17 17 18 18 17 17
15 15 16 17 17 17 17 16 15 15 14 15 14 14 14 12 11 9 8 7 6 5 6 7 8 10 11 11 11 11 12 13 16 17 18 19 20 20 20 20 19 19
18 18 18 18 19 19 20 19 18 17 17 16 15 16 15 14 12 10 9 8 7 6 7 8 9 10 10 10 11 11 13 15 17 18 20 21 22 22 21 21 21 20
20 20 20 20 21 23 23 22 20 19 19 18 17 17 17 15 13 12 10 9 7 7 8 9 9 9 9 9 11 13 15 16 17 18 20 22 22 22 21 21 20 20
23 22 22 23 24 25 25 24 23 22 21 21 19 18 17 16 14 13 11 9 8 8 8 9 10 9 9 10 12 14 15 16 17 19 20 21 21 21 20 20 19 19
24 24 24 25 26 27 26 26 26 25 23 23 21 19 18 17 15 14 11 10 9 8 8 9 10 10 10 11 13 14 15 15 17 18 19 20 20 20 20 20 20 18
25 25 26 26 27 27 27 27 28 27 26 25 22 20 19 18 16 15 12 11 9 9 9 9 10 11 12 13 14 14 14 15 17 19 20 20 21 21 21 21 21 20
24 26 27 27 27 28 28 29 29 29 28 25 22 21 21 19 17 15 13 12 10 9 9 10 11 12 13 13 14 14 14 15 18 20 21 21 22 22 22 22 22 22
23 25 26 27 28 28 29 29 30 30 27 24 22 23 22 20 18 16 14 13 11 10 10 11 12 13 14 14 14 13 14 16 19 20 22 23 24 24 24 23 23 24
21 22 24 25 26 27 28 29 30 29 25 23 24 24 22 21 19 17 15 13 12 12 12 12 13 14 14 14 13 14 15 17 19 21 23 25 26 27 27 26 25 25
18 19 19 20 22 24 25 27 28 27 25 25 25 24 23 22 20 18 16 14 13 13 12 13 14 15 15 14 14 15 17 19 20 21 23 26 27 28 28 27 27 26
15 15 15 17 19 21 24 26 27 27 26 26 25 25 24 23 21 19 17 16 15 14 13 13 14 15 15 15 15 16 18 20 21 23 24 26 28 29 28 28 28 28
15 15 15 16 18 21 24 26 27 27 26 26 26 26 25 24 22 20 19 18 16 14 14 14 14 15 16 16 16 18 19 21 23 24 26 27 29 30 30 28 28 28
16 16 17 18 19 22 24 26 26 26 26 26 27 27 26 25 23 22 21 20 17 15 15 14 14 15 16 16 17 19 20 22 24 26 28 29 31 32 30 28 26 27
17 17 19 20 21 22 24 25 25 25 26 27 27 27 27 26 25 24 23 20 18 16 15 14 14 15 15 16 17 19 21 23 24 26 29 31 32 31 28 26 26 26
18 18 19 21 23 23 24 24 25 26 27 27 27 28 28 28 27 25 22 20 19 17 15 14 14 15 15 16 17 19 22 24 24 26 28 29 29 28 25 25 26 27
20 20 20 20 22 24 26 26 27 27 28 28 28 29 29 29 28 25 21 20 20 17 15 14 15 16 16 16 17 19 22 23 23 24 26 27 28 27 26 26 27 28
22 22 21 20 21 24 27 28 29 29 29 29 30 30 30 30 28 24 21 21 20 17 15 15 16 17 16 15 17 20 22 22 22 23 25 27 28 29 29 29 29 30
25 25 24 22 22 24 27 29 30 31 31 31 31 32 31 30 27 23 22 22 20 17 16 15 16 16 15 14 16 20 22 23 23 24 26 28 30 32 32 32 32 32
28 27 26 25 24 26 28 30 30 31 31 32 33 34 33 30 26 24 23 23 21 18 17 16 16 16 15 15 17 21 23 23 23 25 27 29 32 34 36 36 35 34
31 30 29 28 28 27 28 30 30 31 32 33 35 35 34 30 27 25 25 23 21 20 18 17 18 17 15 15 18 22 24 24 24 26 28 31 33 36 38 40 39 36
33 32 31 31 31 30 30 30 31 31 32 33 35 36 35 32 29 27 25 24 23 21 19 19 20 18 16 17 20 24 25 25 26 27 29 31 34 36 38 41 41 38
35 35 33 33 33 33 31 31 32 32 32 33 35 37 37 34 31 27 26 25 25 23 22 22 21 19 17 19 22 24 25 26 27 28 30 32 35 36 39 41 41 39
36 36 36 35 36 35 33 33 33 33 32 32 34 38 38 34 31 29 28 28 27 26 25 24 22 20 20 22 25 26 26 26 28 29 31 34 35 37 40 42 40 37
36 37 37 38 38 37 36 35 34 33 33 33 35 38 38 36 33 32 31 30 28 27 27 26 24 23 23 25 27 27 27 28 29 30 33 35 36 37 39 40 39 37
36 37 38 39 39 39 38 37 35 34 34 34 36 37 38 37 36 34 33 31 29 28 29 28 26 26 26 27 28 29 29 29 30 32 34 35 36 37 38 39 39 39

ECMWFNIL_500_spd_036.txt.gz
Wind_Speed
14 13 12 14 15 14 13 13 13 13 13 12 11 12 12 12 11 10 10 10 9 8 7 5 4 4 4 5 5 6 8 8 10 12 15 17 18 19 20 20 20 20
15 15 15 15 15 15 14 14 14 14 14 14 13 13 13 13 13 12 12 11 10 9 8 7 6 5 5 5 6 7 8 9 11 13 15 17 18 18 18 19 19 19
17 17 16 17 17 17 17 17 17 16 16 16 15 15 15 15 15 14 13 13 12 11 10 8 7 6 5 5 6 8 8 10 12 13 14 16 17 17 17 17 17 17
19 19 18 19 20 20 20 19 19 18 17 17 16 17 17 17 17 16 15 15 14 13 11 10 8 7 5 6 7 8 9 10 11 12 13 15 16 16 16 16 16 16
22 21 21 21 22 22 22 20 20 19 18 18 18 18 18 18 19 18 17 16 16 15 13 12 10 8 6 7 8 9 9 10 10 11 12 14 16 16 15 16 16 15
24 23 23 23 24 24 23 22 22 21 20 20 20 19 19 20 20 20 19 18 17 17 15 14 11 9 7 8 9 9 10 10 10 11 12 14 16 16 16 17 17 17
24 24 25 25 25 25 24 24 24 23 22 22 22 21 20 20 21 21 20 19 18 18 17 15 13 10 8 9 9 10 10 10 10 11 13 15 17 18 18 18 19 19
23 24 25 25 25 25 24 25 25 25 24 24 23 22 22 22 21 21 20 20 19 19 18 17 14 11 10 10 10 10 10 10 10 12 14 16 18 19 20 21 21 21
19 21 22 24 25 25 25 26 26 27 27 25 25 24 24 23 22 21 20 20 20 20 19 18 16 13 11 11 11 11 11 11 12 14 16 17 19 21 22 23 23 23
15 17 19 20 22 24 25 27 28 29 29 27 27 27 26 24 22 22 21 20 20 20 20 20 18 15 13 12 12 11 11 12 13 15 17 19 20 22 24 25 25 24
12 13 15 17 20 22 24 27 29 30 30 29 29 29 28 25 23 22 21 20 21 21 22 21 19 16 14 14 13 12 12 13 15 17 18 20 21 23 24 25 25 24
10 10 12 14 17 19 22 25 27 30 31 31 31 30 28 25 24 23 21 21 22 23 23 22 19 17 16 16 14 13 13 14 16 18 19 20 21 22 23 23 23 22
10 9 9 12 14 17 19 21 23 26 28 29 29 28 26 25 25 24 22 22 24 24 24 22 19 17 17 17 16 15 14 15 17 18 18 19 19 20 20 20 20 20
11 11 11 11 14 16 17 18 19 21 24 26 26 25 24 26 26 25 24 24 25 25 25 23 20 18 18 18 18 17 16 17 18 19 18 17 17 18 18 18 18 20
13 14 14 13 14 16 17 18 19 19 21 23 23 23 24 26 27 28 27 26 26 26 25 22 20 19 19 20 20 19 19 19 20 19 17 16 16 17 17 18 19 21
16 16 16 16 15 16 17 19 20 20 21 21 22 22 23 25 28 29 28 27 26 26 25 22 20 20 21 21 22 21 21 22 22 20 17 16 16 17 18 19 21 22
18 18 18 18 17 17 18 19 21 22 22 22 22 22 23 25 27 28 28 27 27 27 25 23 21 22 22 23 23 23 23 24 23 20 18 17 17 17 19 21 23 24
19 20 21 20 19 19 19 20 21 22 22 23 24 24 24 25 26 26 27 28 27 27 26 24 23 23 23 24 24 24 25 26 24 21 18 17 17 18 20 22 24 25
19 20 21 22 22 22 22 23 23 22 21 22 24 25 26 26 26 26 27 28 28 28 27 25 25 25 25 25 25 26 26 26 25 22 19 18 18 19 21 22 25 27
20 19 20 21 23 24 25 25 24 23 22 23 23 24 25 26 27 28 28 28 29 29 28 28 27 26 26 26 26 26 26 26 25 22 19 19 19 20 21 22 24 27
21 20 20 22 24 27 28 28 27 25 23 23 24 24 25 25 27 28 29 29 30 30 29 29 29 28 27 27 26 27 28 27 25 22 20 19 20 21 23 23 24 26
22 21 22 23 26 28 29 30 30 29 27 26 25 25 25 26 27 28 29 30 31 32 31 30 30 29 28 28 27 28 29 28 24 22 20 20 21 22 24 24 25 26
24 23 24 25 26 28 30 31 31 31 31 29 28 27 27 27 27 28 29 31 32 33 32 31 31 31 29 29 29 29 30 28 25 22 21 21 23 24 25 25 26 28
28 27 27 28 27 28 30 32 33 33 33 33 32 31 29 28 28 29 30 32 33 34 34 33 33 33 31 31 31 31 30 28 26 24 23 23 24 26 26 27 28 30
31 30 30 29 29 30 31 33 34 35 36 37 36 35 32 30 30 31 31 32 33 35 36 35 35 35 33 33 34 34 32 31 29 26 24 25 27 28 28 28 29 31
33 32 32 32 31 32 34 36 36 36 37 39 39 38 36 34 33 32 32 33 34 36 38 38 38 37 36 35 37 37 36 34 32 29 26 28 29 29 29 30 31 32

ECMWFNIL_500_spd_042.txt.gz
Wind_Speed
19 18 18 19 19 19 18 18 18 18 18 18 18 17 14 11 9 7 7 6 5 6 8 9 9 10 12 13 13 12 11 10 9 7 5 5 6 6 6 7 9 12
20 19 19 19 20 20 19 19 18 18 19 19 19 17 15 13 11 9 8 7 6 5 7 9 11 11 12 13 14 13 12 11 10 8 7 7 7 7 7 8 10 12
21 20 20 20 20 21 21 20 18 18 19 20 19 19 17 15 14 12 10 9 7 6 6 8 10 12 13 14 14 14 14 12 11 9 7 7 8 7 8 9 11 13
21 20 20 21 21 22 22 20 19 19 20 20 21 20 19 17 16 15 13 11 10 9 8 8 10 12 14 15 15 15 15 14 13 11 9 8 8 8 9 10 11 13
21 21 21 21 21 22 22 21 21 21 21 21 22 21 20 19 18 17 15 13 12 11 11 11 11 12 14 15 16 16 16 15 14 13 11 9 9 9 10 11 12 14
22 22 22 21 21 22 22 21 22 22 22 22 23 22 21 21 20 19 18 16 14 13 13 13 13 13 14 16 17 16 17 17 16 15 13 12 11 10 11 12 13 14
23 23 23 23 23 23 22 22 23 23 23 23 23 22 22 22 21 21 20 18 16 15 14 15 15 15 15 17 17 17 17 17 17 17 16 14 13 12 12 13 14 15
24 24 24 24 24 23 23 24 24 24 24 24 23 23 23 22 22 22 21 20 18 16 16 16 17 17 17 17 18 18 18 18 18 18 17 16 15 13 13 14 14 15
25 24 24 24 24 24 24 24 25 25 26 25 24 24 23 22 22 22 22 21 20 18 18 18 19 19 19 18 19 19 19 19 19 19 18 18 17 15 14 14 14 15
24 24 24 23 23 23 24 25 26 27 27 27 26 26 24 23 23 22 22 22 21 20 20 20 20 21 21 20 20 21 21 20 20 20 20 19 18 17 15 15 14 14
23 23 22 22 23 23 24 25 26 27 28 28 27 26 25 24 24 23 22 22 22 22 22 22 22 23 23 22 22 22 22 21 21 21 21 21 20 19 17 15 14 14
23 22 21 22 22 22 23 24 24 26 27 27 27 26 25 25 24 24 23 23 23 24 24 24 24 25 25 24 24 23 22 22 22 22 22 22 22 20 18 17 15 14
22 21 21 21 21 21 21 21 21 22 24 26 27 26 25 25 25 25 25 25 26 26 26 26 26 26 26 25 25 24 23 23 23 23 24 23 23 22 20 18 16 15
22 21 22 21 20 19 18 17 18 18 19 21 21 21 21 22 23 24 24 25 26 26 26 26 26 25 25 25 25 24 23 23 23 24 25 25 24 24 23 20 18 17
23 23 23 21 19 18 16 15 14 14 14 14 13 13 14 14 15 16 18 19 21 21 21 21 20 20 21 24 25 24 24 24 24 25 26 26 26 25 25 23 20 19
24 25 23 21 19 17 16 15 13 12 11 10 9 10 10 10 10 11 11 12 14 15 15 15 14 14 17 21 24 25 25 25 26 26 27 28 27 27 26 25 23 22
26 25 23 21 20 19 17 16 14 13 11 10 9 8 8 8 9 9 9 10 11 12 12 12 12 12 14 18 22 24 25 25 26 26 27 28 28 28 27 27 25 24
25 24 23 21 20 20 19 18 17 15 13 11 10 8 8 8 7 7 8 9 10 12 13 13 13 13 14 17 20 22 24 24 25 26 28 29 29 29 29 28 28 27
25 24 22 21 21 21 21 21 20 17 14 12 11 10 10 9 8 8 8 8 10 11 12 14 15 15 15 17 19 21 23 24 24 25 27 29 30 30 30 30 29 29
25 24 22 21 21 22 23 22 20 18 15 14 14 14 12 11 11 12 12 11 12 11 11 13 14 15 17 19 21 22 24 25 25 26 28 29 29 30 31 31 31 31
25 24 23 22 22 23 23 21 20 19 18 17 17 17 16 15 16 16 15 15 15 14 13 13 14 15 17 20 22 24 25 27 28 28 28 28 29 30 31 31 31 31
25 24 24 23 23 23 22 21 21 20 21 21 21 21 20 20 20 20 19 19 19 19 18 17 16 17 17 19 22 25 27 29 30 29 29 28 29 30 31 32 32 32
24 24 24 24 24 24 23 22 23 23 24 25 25 25 24 24 24 25 26 25 24 23 22 21 21 21 20 21 23 26 28 29 30 31 30 30 31 32 32 33 33 32
23 24 25 26 26 26 25 26 27 27 27 27 27 27 27 26 27 27 28 28 28 29 28 27 26 26 25 24 25 27 29 31 31 32 32 32 33 33 33 33 34 34
24 26 28 29 30 30 30 30 30 29 29 29 30 30 30 30 31 30 29 30 31 32 34 34 33 31 29 28 29 30 32 34 34 34 34 34 34 34 34 34 36 36
25 29 32 33 33 33 34 34 33 33 33 33 34 34 34 34 35 34 33 32 33 34 35 36 36 36 33 32 33 35 36 38 39 38 38 37 37 36 36 36 37 38

ECMWFNIL_500_spd_045.txt.gz
Wind_Speed
21 21 21 22 22 21 21 20 19 19 19 18 18 17 14 12 11 10 9 7 6 6 8 9 10 11 12 12 11 10 9 9 10 10 10 10 9 6 5 5 6 6
21 21 21 21 21 21 21 20 19 18 18 19 18 17 15 13 12 12 10 8 7 6 6 8 9 11 13 13 12 11 10 9 10 10 11 11 10 8 7 6 7 7
22 22 22 22 22 22 22 20 19 18 18 18 18 18 16 14 13 13 12 10 8 7 7 7 8 10 12 13 13 12 11 10 10 11 11 12 11 10 8 8 8 8
21 21 21 22 22 22 22 20 19 19 18 18 18 17 15 14 14 15 14 13 11 10 9 9 9 10 11 13 14 14 13 12 11 11 12 12 13 12 10 9 9 10
21 21 20 21 22 22 21 20 20 20 19 18 18 16 15 15 15 15 16 15 14 13 12 11 11 11 12 13 14 14 14 14 13 13 12 13 13 13 12 10 10 11
21 20 20 20 21 21 21 21 21 21 20 19 18 17 17 16 16 16 17 18 17 16 15 14 13 13 14 14 14 14 15 15 15 15 14 14 14 14 13 12 10 11
20 21 21 21 21 21 21 21 22 21 21 21 20 19 19 19 18 18 19 20 20 19 18 16 15 15 16 16 16 15 15 15 16 16 16 15 15 15 14 13 12 11
22 23 23 22 22 22 22 22 22 22 22 21 21 21 21 21 21 21 21 21 22 22 20 19 18 17 17 17 17 17 16 16 16 18 18 17 16 16 15 15 14 12
24 24 24 24 24 23 23 24 24 23 23 22 22 22 22 22 23 23 23 23 23 23 22 21 20 19 19 19 19 19 19 17 17 18 19 18 18 17 17 16 15 14
24 24 24 25 25 25 25 25 25 25 24 24 24 24 24 23 23 24 24 24 24 23 23 23 22 21 20 20 20 21 21 20 18 18 19 19 19 19 18 17 17 16
24 24 24 24 25 25 26 26 26 25 24 24 25 25 25 25 25 25 24 24 25 24 24 24 23 22 22 22 22 23 23 22 21 19 20 20 20 20 20 19 18 18
24 24 24 24 25 25 25 25 24 23 23 24 25 25 26 25 25 26 26 25 26 26 25 25 24 23 23 23 24 24 24 24 23 21 20 20 21 21 21 21 21 20
23 24 24 24 24 24 24 24 23 22 22 22 23 23 23 23 23 25 26 26 26 26 26 25 25 24 23 24 25 25 25 25 25 23 21 21 21 22 22 23 22 22
22 24 25 25 24 24 23 22 21 21 21 20 20 20 19 20 20 22 24 25 26 26 26 26 25 25 25 25 25 25 25 26 25 24 22 22 22 23 24 24 24 24
23 24 25 25 24 23 22 21 20 20 20 19 19 18 18 18 19 20 21 23 24 26 26 27 26 25 24 24 24 24 25 25 25 24 23 23 24 24 25 25 25 25
24 26 26 26 24 23 22 21 21 21 20 19 18 17 16 16 17 17 18 20 21 22 24 24 22 21 20 20 21 22 23 24 24 23 23 23 24 25 26 26 26 26
25 26 28 27 25 24 22 22 21 20 19 18 17 16 15 15 15 15 16 17 17 18 18 17 15 15 16 17 19 21 22 22 22 23 23 23 24 25 26 27 27 27
26 27 29 28 26 24 23 22 22 20 19 18 16 15 14 15 15 15 15 16 16 16 15 14 14 14 15 17 19 20 22 22 22 23 23 23 24 24 25 27 28 28
27 28 29 28 26 25 24 23 22 21 19 17 16 16 16 16 15 15 16 15 15 15 15 15 15 15 16 18 19 21 22 23 23 23 24 24 24 25 25 27 28 29
26 29 30 28 26 25 25 24 22 21 20 19 19 19 19 17 16 16 16 15 15 15 14 14 13 13 15 17 19 21 23 24 24 24 24 24 25 26 27 27 28 29
24 28 29 28 26 26 25 24 23 22 22 21 22 21 20 19 19 18 18 17 17 16 15 14 13 13 14 16 18 20 22 24 25 24 23 24 25 26 28 29 29 30
23 26 27 27 27 26 25 24 23 23 23 24 24 23 22 22 21 20 20 19 19 19 18 17 17 17 17 16 18 21 23 25 26 26 25 24 25 27 28 30 31 31
21 24 26 26 25 25 24 23 23 23 24 25 25 25 25 24 23 23 23 22 22 22 21 20 20 21 21 20 21 23 25 27 28 28 28 27 27 28 29 30 31 32
19 22 23 24 24 23 23 23 24 24 25 26 26 26 26 26 26 26 26 25 25 25 25 25 25 25 25 25 25 26 28 30 31 32 33 32 31 31 31 31 31 33
19 20 21 21 21 22 23 24 25 26 26 27 27 27 28 28 27 27 27 28 28 28 29 29 30 31 31 30 30 30 31 33 35 36 36 36 37 37 36 35 35 35
21 21 20 19 20 21 23 25 26 27 28 29 29 29 30 29 29 29 29 29 30 31 32 32 32 34 35 34 33 33 34 36 38 38 38 38 39 40 40 40 40 41

ECMWFNIL_500_spd_048.txt.gz
Wind_Speed
19 18 18 19 19 18 17 16 15 14 14 13 13 12 11 11 10 10 10 8 6 6 6 7 7 8 8 8 8 8 8 9 8 8 7 7 7 8 9 9 8 8
18 18 18 18 18 17 17 15 14 13 13 12 12 12 11 11 11 11 11 9 7 6 6 6 6 7 8 8 8 8 9 10 10 10 9 8 8 8 9 10 10 10
17 17 17 17 18 18 16 15 14 13 13 12 11 11 11 11 11 11 11 10 9 7 6 6 6 6 7 7 7 8 9 10 10 11 11 10 9 9 9 10 11 11
15 15 15 16 17 17 16 15 14 13 13 12 11 10 10 9 10 11 12 12 11 9 8 7 7 7 7 8 8 8 9 10 11 12 12 12 11 11 10 11 11 12
14 14 15 15 16 16 16 15 14 13 13 12 11 10 9 9 9 10 12 13 12 12 11 10 9 9 9 9 9 9 9 10 11 12 13 13 13 12 12 12 12 13
14 14 14 14 14 14 14 15 15 14 13 13 13 13 12 11 11 11 13 14 14 14 14 13 13 12 12 12 11 11 11 11 11 12 13 14 14 13 13 13 13 13
14 14 14 13 13 13 13 15 16 16 15 15 15 15 15 15 15 15 15 16 17 17 17 17 16 16 15 14 14 13 13 12 12 13 13 14 15 14 14 14 14 14
15 15 14 14 14 14 15 15 16 16 17 17 16 16 17 18 18 19 19 19 19 20 20 19 19 19 18 17 16 16 15 15 14 14 15 15 15 16 15 15 15 15
15 15 16 16 16 16 16 17 17 17 18 18 18 18 18 19 20 21 21 21 22 22 22 22 21 21 21 20 19 18 17 17 16 16 16 16 16 16 17 16 15 16
16 16 17 17 17 17 18 19 19 19 19 19 19 20 20 20 21 22 22 22 23 23 24 24 23 23 23 22 21 21 20 19 18 18 17 18 18 17 17 17 16 17
18 18 18 18 18 19 20 20 21 20 20 20 20 20 20 20 21 22 23 23 23 24 24 25 24 23 23 23 22 22 22 21 20 19 19 19 19 19 18 18 18 18
19 19 19 19 20 20 21 21 21 20 19 19 19 18 18 18 20 21 22 22 24 25 25 25 25 24 24 23 22 22 22 22 22 21 20 20 20 20 19 19 19 20
20 20 20 21 21 21 21 21 20 19 17 17 17 17 16 17 18 19 20 20 22 24 24 24 25 25 23 23 22 21 22 23 24 23 22 22 21 21 21 20 20 21
20 20 21 21 22 22 21 21 20 18 17 16 16 16 16 16 15 16 18 19 20 21 23 23 23 24 23 22 21 22 22 23 24 25 25 23 22 22 22 21 21 22
20 21 21 21 22 22 21 20 19 19 17 17 17 17 16 16 15 15 16 19 19 19 21 21 21 22 23 22 22 23 24 24 25 26 26 24 23 23 22 22 22 22
19 20 21 22 22 22 21 20 20 20 19 18 17 17 16 16 15 14 15 17 18 17 18 19 20 20 22 23 23 24 25 24 23 24 24 24 22 21 22 22 22 22
17 18 19 21 22 22 22 22 21 20 20 18 17 16 16 16 16 15 14 15 16 16 16 17 17 17 18 20 21 22 22 21 20 20 21 22 21 20 20 21 22 22
17 17 18 20 22 23 23 22 22 21 19 18 16 16 17 17 16 15 14 14 14 14 14 14 14 14 15 16 17 18 19 19 19 19 19 20 21 20 20 20 20 21
19 19 18 19 21 23 23 22 21 20 18 17 17 17 18 17 16 15 14 13 13 13 13 13 13 13 14 15 16 17 19 20 19 19 19 19 20 20 20 20 20 20
20 20 20 20 21 23 23 21 21 20 19 18 19 19 18 17 16 15 15 14 14 14 14 14 13 13 13 14 16 17 19 20 20 19 18 18 19 20 21 21 21 21
19 19 20 21 21 22 22 20 21 21 20 20 20 19 18 18 17 16 16 16 15 15 15 15 14 13 13 14 16 17 19 21 21 21 19 18 19 20 21 21 22 23
16 17 19 21 21 21 20 19 21 22 22 21 20 19 19 19 18 17 17 17 17 18 17 16 16 16 15 15 17 18 21 22 23 23 23 22 21 21 21 22 23 24
15 15 17 19 20 19 18 18 21 22 22 22 20 19 19 19 19 19 19 20 20 20 20 19 18 18 18 18 19 20 23 25 26 27 27 27 26 25 24 24 25 26
18 15 16 17 18 18 17 18 20 21 22 22 21 20 20 20 21 21 21 21 21 21 22 21 21 21 21 21 22 23 25 28 30 32 32 31 31 31 30 29 30 31
21 19 17 16 16 16 16 17 18 20 21 21 21 21 20 20 20 20 19 20 20 21 21 22 23 24 25 25 26 27 28 30 32 34 35 35 35 35 35 35 34 34
24 22 19 17 15 15 16 16 17 19 20 21 21 21 20 20 19 18 18 19 20 21 22 23 24 26 27 28 29 30 31 33 34 35 36 36 38 39 39 39 38 37